Regional Weather Roundup
Issued by NWS

Home | Current Version | Previous Version | Text Only | Print | Product List | Glossary On
Versions: 1 2 3 4 5 6 7 8 9 10 11 12 13 14 15 16 17 18 19 20 21 22 23 24 25 26 27 28 29 30 31 32 33 34 35 36 37 38 39 40 41 42 43 44 45 46 47 48 49 50
000
ASUS45 KPSR 281810
RWRAZ

ARIZONA REGIONAL HOURLY WEATHER ROUNDUP
NATIONAL WEATHER SERVICE PHOENIX AZ
1100 AM MST WED JAN 28 2015

NOTE: FAIR INDICATES FEW OR NO CLOUDS BELOW 12,000 FEET WITH NO
SIGNIFICANT WEATHER AND/OR OBSTRUCTIONS TO VISIBILITY.

AZZ001>003-036-281900-
NORTHWEST ARIZONA

CITY           SKY/WX    TMP DP  RH WIND       PRES   REMARKS
BULLHEAD CITY  PTSUNNY   63  50  63 N12G22    30.23R
KINGMAN        PTSUNNY   52  47  83 N7        30.25F
6HR MIN TEMP:  36; 6HR MAX TEMP:  52;

$$

AZZ004>008-015-016-018-281900-
NORTH CENTRAL ARIZONA

CITY           SKY/WX    TMP DP  RH WIND       PRES   REMARKS
GRAND CANYON   MOSUNNY   46  32  58 CALM      30.32S
6HR MIN TEMP:  23; 6HR MAX TEMP:  46;

PRESCOTT       MOSUNNY   50  41  71 N6        30.29S
6HR MIN TEMP:  32; 6HR MAX TEMP:  50;

FLAGSTAFF      MOSUNNY   44  34  67 VRB3      30.32S
6HR MIN TEMP:  22; 6HR MAX TEMP:  44;

PAYSON         SUNNY     55  39  54 CALM      30.29S
$$

AZZ009>014-017-281900-
NORTHEAST ARIZONA

CITY           SKY/WX    TMP DP  RH WIND       PRES   REMARKS
WINSLOW        MOSUNNY   47  38  71 CALM      30.32
6HR MIN TEMP:  26; 6HR MAX TEMP:  47;

SAINT JOHNS    SUNNY     53  39  59 N3        30.28F
6HR MIN TEMP:  29; 6HR MAX TEMP:  53;

WINDOW ROCK    SUNNY     50  35  56 CALM      30.32S
6HR MIN TEMP:  25; 6HR MAX TEMP:  50;

SHOW LOW       SUNNY     52  32  46 S10       30.32F
$$

AZZ023-281900-
GREATER PHOENIX AREA

CITY           SKY/WX    TMP DP  RH WIND       PRES   REMARKS
PHOENIX        PTSUNNY   67  50  54 SE7       30.17F
6HR MIN TEMP:  52; 6HR MAX TEMP:  67;

BUCKEYE          N/A     63  54  72 CALM      30.19F
GLENDALE       PTSUNNY   63  52  67 E3        30.20S
LUKE AFB       NOT AVBL
6HR MIN TEMP:  50; 6HR MAX TEMP:  64;

DEER VALLEY    SUNNY     64  48  56 S5        30.18S
6HR MIN TEMP:  50; 6HR MAX TEMP:  64;

SCOTTSDALE     SUNNY     63  50  62 CALM      30.20R
6HR MIN TEMP:  51; 6HR MAX TEMP:  63;

MESA-FALCON    PTSUNNY   63  46  55 N6        30.19R
MESA-GATEWAY   MOSUNNY   61  54  77 CALM      30.21
CHANDLER       PTSUNNY   61  54  77 CALM      30.19S
$$

AZZ027-028-281900-
SOUTHWEST MARICOPA COUNTY AND PINAL COUNTY

CITY           SKY/WX    TMP DP  RH WIND       PRES   REMARKS
CASA GRANDE    SUNNY     59  52  77 CALM      30.19F
6HR MIN TEMP:  45; 6HR MAX TEMP:  59;

GILA BEND      MOCLDY    63  54  71 N5        30.18F
6HR MIN TEMP:  50; 6HR MAX TEMP:  63;

$$

AZZ503-504-507>509-281900-
SOUTHEAST ARIZONA

CITY           SKY/WX    TMP DP  RH WIND       PRES   REMARKS
TUCSON         MOSUNNY   62  48  60 CALM      30.20F
6HR MIN TEMP:  47; 6HR MAX TEMP:  62;

DAVIS-MONTHAN  MOSUNNY   62  49  61 W3        30.18F
6HR MIN TEMP:  46; 6HR MAX TEMP:  62;

NOGALES        MOSUNNY   61  47  59 CALM      30.21S
6HR MIN TEMP:  40; 6HR MAX TEMP:  62;

SIERRA VISTA   PTSUNNY   63  45  51 NE3       30.25F
DOUGLAS        MOSUNNY   63  40  42 CALM      30.24F
6HR MIN TEMP:  34; 6HR MAX TEMP:  63;

SAFFORD        SUNNY     60  38  43 S5        30.22F
6HR MIN TEMP:  41; 6HR MAX TEMP:  61;

$$

AZZ020-021-025-026-031-281900-
SOUTHWEST ARIZONA

CITY           SKY/WX    TMP DP  RH WIND       PRES   REMARKS
YUMA           PTSUNNY   68  54  60 N8        30.17F
6HR MIN TEMP:  51; 6HR MAX TEMP:  68;

$$

CAZ031-033-041-043-047-048-061-281900-
SOUTHERN CALIFORNIA

CITY           SKY/WX    TMP DP  RH WIND       PRES   REMARKS
DOWNTOWN L.A.  MOSUNNY   66  44  45 VRB5      30.14F
6HR MIN TEMP:  57; 6HR MAX TEMP:  66;

L.A. AIRPORT   PTSUNNY   65  48  54 NE8       30.14F
6HR MIN TEMP:  56; 6HR MAX TEMP:  66;

SAN DIEGO      CLOUDY    68  44  42 CALM      30.13F
6HR MIN TEMP:  54; 6HR MAX TEMP:  68;

BURBANK        MOSUNNY   63  45  51 CALM      30.14F
6HR MIN TEMP:  53; 6HR MAX TEMP:  64;

ONTARIO        CLOUDY    62  47  57 CALM      30.16S
6HR MIN TEMP:  51; 6HR MAX TEMP:  62;

RIVERSIDE      PTSUNNY   67  44  43 NE9       30.16F
6HR MIN TEMP:  49; 6HR MAX TEMP:  67;

PALM SPRINGS   SUNNY     65  46  50 SE6       30.22S
6HR MIN TEMP:  52; 6HR MAX TEMP:  65;

EL CENTRO NAS  PTSUNNY   62  54  74 W3        30.19F
6HR MIN TEMP:  48; 6HR MAX TEMP:  62;

IMPERIAL       MOSUNNY   63  53  70 NW3       30.18F
6HR MIN TEMP:  48; 6HR MAX TEMP:  63;

BLYTHE         MOSUNNY   59  53  80 CALM      30.21S
6HR MIN TEMP:  50; 6HR MAX TEMP:  60;

NEEDLES        PTSUNNY   62  49  62 N6        30.23R
6HR MIN TEMP:  51; 6HR MAX TEMP:  62;

$$

NVZ020-UTZ003-281900-
SOUTHERN NEVADA-UTAH

CITY           SKY/WX    TMP DP  RH WIND       PRES   REMARKS
LAS VEGAS      PTSUNNY   57  44  62 CALM      30.24R
6HR MIN TEMP:  49; 6HR MAX TEMP:  57;

SALT LAKE CITY PTSUNNY   45  39  79 N3        30.31R
6HR MIN TEMP:  39; 6HR MAX TEMP:  45; 6HR PCP: TRACE;

$$

NMZ009-TXZ055-281900-
NEW MEXICO-WEST TEXAS

CITY           SKY/WX    TMP DP  RH WIND       PRES   REMARKS
ALBUQUERQUE    MOSUNNY   53  36  52 SW3       30.29R
6HR MIN TEMP:  33; 6HR MAX TEMP:  53;

EL PASO        MOSUNNY   61  41  47 CALM      30.23F
6HR MIN TEMP:  42; 6HR MAX TEMP:  61;

$$


........................KEY........................
SKY/WX - SKY CONDITION/WEATHER
TMP    - TEMPERATURE IN FAHRENHEIT
DP     - DEW POINT IN FAHRENHEIT
RH     - RELATIVE HUMIDITY IN PERCENT
WIND   - DIRECTION AND SPEED IN MILES PER HOUR (MPH)
VRB    - VARIABLE WIND DIRECTION
PRES   - MEAN SEA LEVEL PRESSURE IN INCHES OF MERCURY
         F - FALLING PRESSURE   R - RISING PRESSURE
         S - STEADY PRESSURE
VSB    - VISIBILITY IN MILES
HX     - HEAT INDEX IN FAHRENHEIT
WCI    - WIND CHILL INDEX IN FAHRENHEIT
TC     - TEMPERATURE IN CELSIUS WHICH IS ALSO KNOWN AS
         TEMPERATURE IN CENTIGRADE
AFB    - AIR FORCE BASE
         LUKE AFB IS LUKE AIR FORCE BASE
         DAVIS-MONTHAN IS DAVIS-MONTHAN AIR FORCE BASE
NAS    - NAVAL AIR STATION
         EL CENTRO NAS IS EL CENTRO NAVAL AIR STATION
N/A    - NOT AVAILABLE



USA.gov is the U.S. government's official web portal to all federal, state and local government web resources and services.